Time,TemperatureF,DewpointF,PressureIn,WindDirection,WindDirectionDegrees,WindSpeedMPH,WindSpeedGustMPH,Humidity,HourlyPrecipIn,Conditions,Clouds,dailyrainin,SolarRadiationWatts/m^2,SoftwareType,DateUTC
2013-11-25 00:11:00,23.0,13.0,-100.00,North,356,2.0,4.0,65,0.00,,,0.00,0.000000,,2013-11-25 09:11:00,
2013-11-25 00:21:00,23.0,13.0,-100.00,North,356,2.0,4.0,65,0.00,,,0.00,0.000000,,2013-11-25 09:21:00,
2013-11-25 00:33:00,24.0,14.0,-100.00,North,8,3.0,6.0,66,0.00,,,0.00,0.000000,,2013-11-25 09:33:00,
2013-11-25 00:53:00,24.0,14.0,-100.00,North,8,3.0,6.0,66,0.00,,,0.00,0.000000,,2013-11-25 09:53:00,
2013-11-25 01:03:00,24.0,14.0,-100.00,North,8,3.0,6.0,66,0.00,,,0.00,0.000000,,2013-11-25 10:03:00,
2013-11-25 01:12:00,24.0,14.0,-100.00,North,8,3.0,6.0,66,0.00,,,0.00,0.000000,,2013-11-25 10:12:00,
2013-11-25 01:23:00,24.0,14.0,-100.00,North,8,3.0,6.0,66,0.00,,,0.00,0.000000,,2013-11-25 10:23:00,
2013-11-25 01:33:00,25.0,13.0,-100.00,North,6,3.0,5.0,61,0.00,,,0.00,0.000000,,2013-11-25 10:33:00,
2013-11-25 02:12:00,25.0,13.0,-100.00,North,6,3.0,5.0,61,0.00,,,0.00,0.000000,,2013-11-25 11:12:00,
2013-11-25 02:22:00,25.0,13.0,-100.00,North,6,3.0,5.0,61,0.00,,,0.00,0.000000,,2013-11-25 11:22:00,
2013-11-25 02:52:00,24.0,10.0,-100.00,NNW,330,2.0,5.0,55,0.00,,,0.00,0.000000,,2013-11-25 11:52:00,
2013-11-25 03:02:00,24.0,10.0,-100.00,NNW,330,2.0,5.0,55,0.00,,,0.00,0.000000,,2013-11-25 12:02:00,
2013-11-25 03:11:00,24.0,10.0,-100.00,NNW,330,2.0,5.0,55,0.00,,,0.00,0.000000,,2013-11-25 12:11:00,
2013-11-25 03:21:00,24.0,10.0,-100.00,NNW,330,2.0,5.0,55,0.00,,,0.00,0.000000,,2013-11-25 12:21:00,
2013-11-25 03:32:00,24.0,10.0,-100.00,NNW,330,2.0,5.0,55,0.00,,,0.00,0.000000,,2013-11-25 12:32:00,
2013-11-25 03:52:00,25.0,6.0,-100.00,NNW,334,4.0,5.0,44,0.00,,,0.00,0.000000,,2013-11-25 12:52:00,
2013-11-25 04:01:00,25.0,6.0,-100.00,NNW,334,4.0,5.0,44,0.00,,,0.00,0.000000,,2013-11-25 13:01:00,
2013-11-25 04:11:00,25.0,6.0,-100.00,NNW,334,4.0,5.0,44,0.00,,,0.00,0.000000,,2013-11-25 13:11:00,
2013-11-25 04:21:00,25.0,6.0,-100.00,NNW,334,4.0,5.0,44,0.00,,,0.00,0.000000,,2013-11-25 13:21:00,
2013-11-25 04:32:00,25.0,6.0,-100.00,NNW,334,4.0,5.0,44,0.00,,,0.00,0.000000,,2013-11-25 13:32:00,
2013-11-25 04:52:00,27.0,6.0,-100.00,NNE,15,3.0,4.0,41,0.00,,,-99.99,0.000000,,2013-11-25 13:52:00,
2013-11-25 05:01:00,27.0,6.0,-100.00,NNE,15,3.0,4.0,41,0.00,,,-99.99,0.000000,,2013-11-25 14:01:00,
2013-11-25 05:11:00,27.0,6.0,-100.00,NNE,15,3.0,4.0,41,0.00,,,-99.99,0.000000,,2013-11-25 14:11:00,
2013-11-25 05:21:00,27.0,6.0,-100.00,NNE,15,3.0,4.0,41,0.00,,,-99.99,0.000000,,2013-11-25 14:21:00,
2013-11-25 05:32:00,27.0,6.0,-100.00,NNE,15,3.0,4.0,41,0.00,,,-99.99,0.000000,,2013-11-25 14:32:00,
2013-11-25 05:33:00,27.0,2.0,-100.00,NNW,339,4.0,7.0,34,0.00,,,0.00,0.000000,,2013-11-25 14:33:00,
2013-11-25 05:52:00,27.0,2.0,-100.00,NNW,339,4.0,7.0,34,0.00,,,0.00,0.000000,,2013-11-25 14:52:00,
2013-11-25 06:02:00,27.0,2.0,-100.00,NNW,339,4.0,7.0,34,0.00,,,0.00,0.000000,,2013-11-25 15:02:00,
2013-11-25 06:11:00,27.0,2.0,-100.00,NNW,339,4.0,7.0,34,0.00,,,0.00,0.000000,,2013-11-25 15:11:00,
2013-11-25 06:21:00,27.0,2.0,-100.00,NNW,339,4.0,7.0,34,0.00,,,0.00,0.000000,,2013-11-25 15:21:00,
2013-11-25 06:33:00,28.0,5.0,-100.00,NNW,342,4.0,7.0,37,0.00,,,0.00,0.000000,,2013-11-25 15:33:00,
2013-11-25 06:54:00,28.0,5.0,-100.00,NNW,342,4.0,7.0,37,0.00,,,0.00,0.000000,,2013-11-25 15:54:00,
2013-11-25 07:03:00,28.0,5.0,-100.00,NNW,342,4.0,7.0,37,0.00,,,0.00,0.000000,,2013-11-25 16:03:00,
2013-11-25 07:13:00,28.0,5.0,-100.00,NNW,342,4.0,7.0,37,0.00,,,0.00,0.000000,,2013-11-25 16:13:00,
2013-11-25 07:23:00,28.0,5.0,-100.00,NNW,342,4.0,7.0,37,0.00,,,0.00,0.000000,,2013-11-25 16:23:00,
2013-11-25 07:33:00,28.0,3.0,-100.00,NNW,336,2.0,6.0,34,0.00,,,0.00,0.000000,,2013-11-25 16:33:00,
2013-11-25 07:52:00,28.0,3.0,-100.00,NNW,336,2.0,6.0,34,0.00,,,0.00,0.000000,,2013-11-25 16:52:00,
2013-11-25 08:03:00,28.0,3.0,-100.00,NNW,336,2.0,6.0,34,0.00,,,0.00,0.000000,,2013-11-25 17:03:00,
2013-11-25 08:12:00,28.0,3.0,-100.00,NNW,336,2.0,6.0,34,0.00,,,0.00,0.000000,,2013-11-25 17:12:00,
2013-11-25 08:22:00,28.0,3.0,-100.00,NNW,336,2.0,6.0,34,0.00,,,0.00,0.000000,,2013-11-25 17:22:00,
2013-11-25 08:33:00,27.0,5.0,-100.00,NNW,340,4.0,6.0,39,0.00,,,0.00,0.000000,,2013-11-25 17:33:00,
2013-11-25 08:52:00,27.0,5.0,-100.00,NNW,340,4.0,6.0,39,0.00,,,0.00,0.000000,,2013-11-25 17:52:00,
2013-11-25 09:02:00,27.0,5.0,-100.00,NNW,340,4.0,6.0,39,0.00,,,0.00,0.000000,,2013-11-25 18:02:00,
2013-11-25 09:12:00,27.0,5.0,-100.00,NNW,340,4.0,6.0,39,0.00,,,0.00,0.000000,,2013-11-25 18:12:00,
2013-11-25 09:21:00,27.0,5.0,-100.00,NNW,340,4.0,6.0,39,0.00,,,0.00,0.000000,,2013-11-25 18:21:00,
2013-11-25 09:52:00,25.0,13.0,-100.00,NNW,334,4.0,7.0,59,0.00,,,0.00,0.000000,,2013-11-25 18:52:00,
2013-11-25 10:02:00,25.0,13.0,-100.00,NNW,334,4.0,7.0,59,0.00,,,0.00,0.000000,,2013-11-25 19:02:00,
2013-11-25 10:11:00,25.0,13.0,-100.00,NNW,334,4.0,7.0,59,0.00,,,0.00,0.000000,,2013-11-25 19:11:00,
2013-11-25 10:21:00,25.0,13.0,-100.00,NNW,334,4.0,7.0,59,0.00,,,0.00,0.000000,,2013-11-25 19:21:00,
2013-11-25 10:32:00,25.0,13.0,-100.00,NNW,334,4.0,7.0,59,0.00,,,0.00,0.000000,,2013-11-25 19:32:00,
2013-11-25 10:52:00,21.0,8.0,-100.00,NNW,337,6.0,11.0,56,0.00,,,0.00,9.000000,,2013-11-25 19:52:00,
2013-11-25 11:01:00,21.0,8.0,-100.00,NNW,337,6.0,11.0,56,0.00,,,0.00,9.000000,,2013-11-25 20:01:00,
2013-11-25 11:12:00,21.0,8.0,-100.00,NNW,337,6.0,11.0,56,0.00,,,0.00,9.000000,,2013-11-25 20:12:00,
2013-11-25 11:21:00,21.0,8.0,-100.00,NNW,337,6.0,11.0,56,0.00,,,0.00,9.000000,,2013-11-25 20:21:00,
2013-11-25 11:32:00,21.0,8.0,-100.00,NNW,337,6.0,11.0,56,0.00,,,0.00,9.000000,,2013-11-25 20:32:00,
2013-11-25 11:33:00,22.0,11.0,-100.00,NNW,335,6.0,13.0,61,0.00,,,0.00,39.000000,,2013-11-25 20:33:00,
2013-11-25 11:52:00,22.0,11.0,-100.00,NNW,335,6.0,13.0,61,0.00,,,0.00,39.000000,,2013-11-25 20:52:00,
2013-11-25 12:01:00,22.0,11.0,-100.00,NNW,335,6.0,13.0,61,0.00,,,0.00,39.000000,,2013-11-25 21:01:00,
2013-11-25 12:11:00,22.0,11.0,-100.00,NNW,335,6.0,13.0,61,0.00,,,0.00,39.000000,,2013-11-25 21:11:00,
2013-11-25 12:22:00,22.0,11.0,-100.00,NNW,335,6.0,13.0,61,0.00,,,0.00,39.000000,,2013-11-25 21:22:00,
2013-11-25 12:33:00,21.0,8.0,-100.00,NNW,327,4.0,9.0,56,0.00,,,0.00,69.000000,,2013-11-25 21:33:00,
2013-11-25 12:54:00,21.0,8.0,-100.00,NNW,327,4.0,9.0,56,0.00,,,0.00,69.000000,,2013-11-25 21:54:00,
2013-11-25 13:03:00,21.0,8.0,-100.00,NNW,327,4.0,9.0,56,0.00,,,0.00,69.000000,,2013-11-25 22:03:00,
2013-11-25 13:13:00,21.0,8.0,-100.00,NNW,327,4.0,9.0,56,0.00,,,0.00,69.000000,,2013-11-25 22:13:00,
2013-11-25 13:23:00,21.0,8.0,-100.00,NNW,327,4.0,9.0,56,0.00,,,0.00,69.000000,,2013-11-25 22:23:00,
2013-11-25 13:33:00,21.0,10.0,-100.00,NNW,346,3.0,6.0,61,0.00,,,0.00,57.000000,,2013-11-25 22:33:00,
2013-11-25 13:53:00,21.0,10.0,-100.00,NNW,346,3.0,6.0,61,0.00,,,0.00,57.000000,,2013-11-25 22:53:00,
2013-11-25 14:02:00,21.0,10.0,-100.00,NNW,346,3.0,6.0,61,0.00,,,0.00,57.000000,,2013-11-25 23:02:00,
2013-11-25 14:12:00,21.0,10.0,-100.00,NNW,346,3.0,6.0,61,0.00,,,0.00,57.000000,,2013-11-25 23:12:00,
2013-11-25 14:22:00,21.0,10.0,-100.00,NNW,346,3.0,6.0,61,0.00,,,0.00,57.000000,,2013-11-25 23:22:00,
2013-11-25 14:52:00,20.0,8.0,-100.00,North,351,3.0,6.0,59,0.00,,,0.00,33.000000,,2013-11-25 23:52:00,
2013-11-25 15:01:00,20.0,8.0,-100.00,North,351,3.0,6.0,59,0.00,,,0.00,33.000000,,2013-11-26 00:01:00,
2013-11-25 15:11:00,20.0,8.0,-100.00,North,351,3.0,6.0,59,0.00,,,0.00,33.000000,,2013-11-26 00:11:00,
2013-11-25 15:21:00,20.0,8.0,-100.00,North,351,3.0,6.0,59,0.00,,,0.00,33.000000,,2013-11-26 00:21:00,
2013-11-25 15:32:00,20.0,8.0,-100.00,North,351,3.0,6.0,59,0.00,,,0.00,33.000000,,2013-11-26 00:32:00,
2013-11-25 15:52:00,22.0,10.0,-100.00,North,2,2.0,3.0,60,0.00,,,0.00,22.000000,,2013-11-26 00:52:00,
2013-11-25 16:01:00,22.0,10.0,-100.00,North,2,2.0,3.0,60,0.00,,,0.00,22.000000,,2013-11-26 01:01:00,
2013-11-25 16:11:00,22.0,10.0,-100.00,North,2,2.0,3.0,60,0.00,,,0.00,22.000000,,2013-11-26 01:11:00,
2013-11-25 16:21:00,22.0,10.0,-100.00,North,2,2.0,3.0,60,0.00,,,0.00,22.000000,,2013-11-26 01:21:00,
2013-11-25 16:32:00,22.0,10.0,-100.00,North,2,2.0,3.0,60,0.00,,,0.00,22.000000,,2013-11-26 01:32:00,
2013-11-25 16:52:00,17.0,12.0,-100.00,North,6,2.0,4.0,79,0.00,,,0.00,2.000000,,2013-11-26 01:52:00,
2013-11-25 17:01:00,17.0,12.0,-100.00,North,6,2.0,4.0,79,0.00,,,0.00,2.000000,,2013-11-26 02:01:00,
2013-11-25 17:11:00,17.0,12.0,-100.00,North,6,2.0,4.0,79,0.00,,,0.00,2.000000,,2013-11-26 02:11:00,
2013-11-25 17:22:00,17.0,12.0,-100.00,North,6,2.0,4.0,79,0.00,,,0.00,2.000000,,2013-11-26 02:22:00,
2013-11-25 17:32:00,17.0,12.0,-100.00,North,6,2.0,4.0,79,0.00,,,0.00,2.000000,,2013-11-26 02:32:00,
2013-11-25 17:33:00,18.0,10.0,-100.00,NNW,328,1.0,4.0,69,0.00,,,0.00,0.000000,,2013-11-26 02:33:00,
2013-11-25 17:52:00,18.0,10.0,-100.00,NNW,328,1.0,4.0,69,0.00,,,0.00,0.000000,,2013-11-26 02:52:00,
2013-11-25 18:01:00,18.0,10.0,-100.00,NNW,328,1.0,4.0,69,0.00,,,0.00,0.000000,,2013-11-26 03:01:00,
2013-11-25 18:11:00,18.0,10.0,-100.00,NNW,328,1.0,4.0,69,0.00,,,0.00,0.000000,,2013-11-26 03:11:00,
2013-11-25 18:22:00,18.0,10.0,-100.00,NNW,328,1.0,4.0,69,0.00,,,0.00,0.000000,,2013-11-26 03:22:00,
2013-11-25 18:33:00,19.0,11.0,-100.00,NNW,336,2.0,5.0,72,0.00,,,0.00,0.000000,,2013-11-26 03:33:00,
2013-11-25 18:54:00,19.0,11.0,-100.00,NNW,336,2.0,5.0,72,0.00,,,0.00,0.000000,,2013-11-26 03:54:00,
2013-11-25 19:03:00,19.0,11.0,-100.00,NNW,336,2.0,5.0,72,0.00,,,0.00,0.000000,,2013-11-26 04:03:00,
2013-11-25 19:13:00,19.0,11.0,-100.00,NNW,336,2.0,5.0,72,0.00,,,0.00,0.000000,,2013-11-26 04:13:00,
2013-11-25 19:23:00,19.0,11.0,-100.00,NNW,336,2.0,5.0,72,0.00,,,0.00,0.000000,,2013-11-26 04:23:00,
2013-11-25 19:33:00,17.0,11.0,-100.00,ESE,110,0.0,3.0,76,0.00,,,0.00,0.000000,,2013-11-26 04:33:00,
2013-11-25 19:53:00,17.0,11.0,-100.00,ESE,110,0.0,3.0,76,0.00,,,0.00,0.000000,,2013-11-26 04:53:00,
2013-11-25 20:03:00,17.0,11.0,-100.00,ESE,110,0.0,3.0,76,0.00,,,0.00,0.000000,,2013-11-26 05:03:00,
2013-11-25 20:12:00,17.0,11.0,-100.00,ESE,110,0.0,3.0,76,0.00,,,0.00,0.000000,,2013-11-26 05:12:00,
2013-11-25 20:23:00,17.0,11.0,-100.00,ESE,110,0.0,3.0,76,0.00,,,0.00,0.000000,,2013-11-26 05:23:00,
2013-11-25 20:53:00,17.0,10.0,-100.00,NW,319,2.0,4.0,74,0.00,,,0.00,0.000000,,2013-11-26 05:53:00,
2013-11-25 21:02:00,17.0,10.0,-100.00,NW,319,2.0,4.0,74,0.00,,,0.00,0.000000,,2013-11-26 06:02:00,
2013-11-25 21:12:00,17.0,10.0,-100.00,NW,319,2.0,4.0,74,0.00,,,0.00,0.000000,,2013-11-26 06:12:00,
2013-11-25 21:22:00,17.0,10.0,-100.00,NW,319,2.0,4.0,74,0.00,,,0.00,0.000000,,2013-11-26 06:22:00,
2013-11-25 21:31:00,17.0,10.0,-100.00,NW,319,2.0,4.0,74,0.00,,,0.00,0.000000,,2013-11-26 06:31:00,
2013-11-25 21:52:00,19.0,11.0,-100.00,North,5,1.0,4.0,69,0.00,,,-99.99,0.000000,,2013-11-26 06:52:00,
2013-11-25 22:02:00,19.0,11.0,-100.00,North,5,1.0,4.0,69,0.00,,,-99.99,0.000000,,2013-11-26 07:02:00,
2013-11-25 22:12:00,19.0,11.0,-100.00,North,5,1.0,4.0,69,0.00,,,-99.99,0.000000,,2013-11-26 07:12:00,
2013-11-25 22:21:00,19.0,11.0,-100.00,North,5,1.0,4.0,69,0.00,,,-99.99,0.000000,,2013-11-26 07:21:00,
2013-11-25 22:32:00,19.0,11.0,-100.00,North,5,1.0,4.0,69,0.00,,,-99.99,0.000000,,2013-11-26 07:32:00,
2013-11-25 22:52:00,20.0,14.0,-100.00,North,11,2.0,5.0,78,0.00,,,0.00,0.000000,,2013-11-26 07:52:00,
2013-11-25 23:02:00,20.0,14.0,-100.00,North,11,2.0,5.0,78,0.00,,,0.00,0.000000,,2013-11-26 08:02:00,
2013-11-25 23:11:00,20.0,14.0,-100.00,North,11,2.0,5.0,78,0.00,,,0.00,0.000000,,2013-11-26 08:11:00,
2013-11-25 23:22:00,20.0,14.0,-100.00,North,11,2.0,5.0,78,0.00,,,0.00,0.000000,,2013-11-26 08:22:00,
2013-11-25 23:32:00,20.0,14.0,-100.00,North,11,2.0,5.0,78,0.00,,,0.00,0.000000,,2013-11-26 08:32:00,
2013-11-25 23:33:00,24.0,10.0,-100.00,NNW,339,3.0,9.0,55,0.00,,,0.00,0.000000,,2013-11-26 08:33:00,
2013-11-25 23:52:00,24.0,10.0,-100.00,NNW,339,3.0,9.0,55,0.00,,,0.00,0.000000,,2013-11-26 08:52:00,